Bogalusa, LA

3:26 PM CST on November 20, 2017 (GMT -0600)
Carr Memorial

Weather History for KBXA - January, 2013

Change the Weather History Date:

Saturday, January 5, 2013

  Actual Average Record
Temperature  
Mean Temperature 44 °F -  
Max Temperature 52 °F 58 °F 70 °F (2014)
Min Temperature 36 °F 35 °F 29 °F (2016)
Degree Days  
Heating Degree Days 21    
Moisture  
Dew Point 35 °F    
Average Humidity 72    
Maximum Humidity 100    
Minimum Humidity 45    
Precipitation  
Precipitation 0.01 in - - ()
Sea Level Pressure  
Sea Level Pressure 30.33 in    
Wind  
Wind Speed 3 mph (NE)    
Max Wind Speed 9 mph    
Max Gust Speed -    
Visibility 10 miles    
Events Rain , Thunderstorm    
Averages and records for this station are not official NWS values.
T = Trace of Precipitation, MM = Missing Value Source: NWS Daily Summary

Daily Weather History Graph

Daily Weather History Graph

Search for Another Location

Airport or City:

Trip Planner

Search our weather history database for the weather conditions in past years. The results will help you decide how hot, cold, wet, or windy it might be!

Date:

Astronomy

Jan. 05, 2013 Rise Set
Actual Time 6:57 AM CST 5:12 PM CST
Civil Twilight 6:31 AM CST 5:38 PM CST
Nautical Twilight 6:01 AM CST 6:08 PM CST
Astronomical Twilight 5:32 AM CST 6:37 PM CST
Moon 12:18 AM CST (1/5) 11:50 AM CST (1/5)
Length of Visible Light 11h 07m
Length of Day
10h 14m
Last Quarter, 44% of the Moon is Illuminated
Jan 5
Last Quarter
Jan 11
New
Jan 18
First Quarter
Jan 26
Full
Feb 3
Last Quarter

Hourly Weather History & Observations

Time (CST) Temp. Windchill Dew Point Humidity Pressure Visibility Wind Dir Wind Speed Gust Speed Precip Events Conditions
12:15 AM 40.5 °F 38.4 °F 32.0 °F 72% 30.36 in 10.0 mi NE 3.5 mph - N/A   Unknown
12:35 AM 39.4 °F - 32.0 °F 75% 30.36 in 10.0 mi Calm Calm - N/A   Unknown
12:55 AM 38.3 °F 35.9 °F 32.5 °F 80% 30.36 in 10.0 mi NNE 3.5 mph - N/A   Unknown
1:15 AM 38.3 °F 35.9 °F 32.2 °F 79% 30.36 in 10.0 mi North 3.5 mph - N/A   Unknown
1:35 AM 38.3 °F - 32.9 °F 81% 30.35 in 10.0 mi Calm Calm - N/A   Unknown
1:55 AM 39.4 °F - 32.2 °F 75% 30.35 in 10.0 mi Calm Calm - N/A   Unknown
2:15 AM 37.6 °F - 34.3 °F 88% 30.36 in 10.0 mi Calm Calm - N/A   Clear
2:35 AM 36.9 °F - 36.9 °F 100% 30.35 in 10.0 mi Calm Calm - N/A   Clear
2:55 AM 36.3 °F - 36.3 °F 100% 30.34 in 10.0 mi Calm Calm - N/A   Clear
3:15 AM 36.5 °F - 36.5 °F 100% 30.34 in 10.0 mi Calm Calm - N/A   Clear
3:35 AM 36.3 °F - 36.3 °F 100% 30.34 in 10.0 mi Calm Calm - N/A   Clear
3:55 AM 37.4 °F - 37.2 °F 99% 30.34 in 10.0 mi Calm Calm - N/A   Clear
4:35 AM 36.7 °F 34.1 °F 36.7 °F 100% 30.34 in 10.0 mi North 3.5 mph - N/A   Clear
4:55 AM 37.0 °F 34.5 °F 37.0 °F 100% 30.34 in 10.0 mi NNE 3.5 mph - N/A   Clear
5:15 AM 37.4 °F 32.8 °F 37.2 °F 99% 30.34 in 10.0 mi North 5.8 mph - N/A   Unknown
5:55 AM 39.2 °F 35.9 °F 33.1 °F 79% 30.36 in 10.0 mi NNW 4.6 mph - N/A Thunderstorm Unknown
6:35 AM 39.7 °F 37.6 °F 33.1 °F 77% 30.37 in 10.0 mi NNE 3.5 mph - N/A   Unknown
6:55 AM 39.6 °F 37.4 °F 33.1 °F 78% 30.37 in 10.0 mi NNE 3.5 mph - N/A   Unknown
7:15 AM 39.2 °F 35.9 °F 33.8 °F 81% 30.38 in 10.0 mi North 4.6 mph - N/A   Unknown
7:35 AM 39.6 °F - 33.8 °F 80% 30.39 in 10.0 mi Calm Calm - N/A   Unknown
7:55 AM 40.1 °F - 34.3 °F 80% 30.38 in 10.0 mi Calm Calm - N/A   Unknown
8:15 AM 41.0 °F 38.0 °F 34.0 °F 76% 30.40 in 10.0 mi North 4.6 mph - N/A   Unknown
8:35 AM 41.2 °F 39.2 °F 34.2 °F 76% 30.40 in 10.0 mi North 3.5 mph - N/A   Unknown
8:55 AM 42.1 °F 39.2 °F 34.5 °F 75% 30.40 in 10.0 mi NNE 4.6 mph - N/A   Unknown
9:15 AM 43.0 °F - 33.4 °F 69% 30.40 in 10.0 mi Calm Calm - N/A   Unknown
9:35 AM 43.9 °F 42.3 °F 33.3 °F 66% 30.41 in 10.0 mi NNE 3.5 mph - N/A   Unknown
9:55 AM 44.4 °F 42.9 °F 33.4 °F 65% 30.41 in 10.0 mi NNE 3.5 mph - N/A   Unknown
10:15 AM 45.5 °F 42.5 °F 32.7 °F 61% 30.39 in 10.0 mi NE 5.8 mph - N/A   Unknown
10:55 AM 46.9 °F - 32.7 °F 58% 30.37 in 10.0 mi NE 6.9 mph - N/A   Unknown
11:15 AM 47.5 °F - 33.1 °F 57% 30.36 in 10.0 mi NE 5.8 mph - N/A   Unknown
11:35 AM 47.7 °F - 32.5 °F 56% 30.36 in 10.0 mi ENE 6.9 mph - N/A   Unknown
11:55 AM 48.2 °F - 32.5 °F 55% 30.34 in 10.0 mi NE 5.8 mph - N/A   Unknown
12:15 PM 49.1 °F - 34.0 °F 56% 30.34 in 10.0 mi NNE 5.8 mph - N/A   Unknown
12:35 PM 50.2 °F - 33.6 °F 53% 30.34 in 10.0 mi North 4.6 mph - N/A   Unknown
12:55 PM 50.4 °F - 33.1 °F 52% 30.32 in 10.0 mi NNE 4.6 mph - N/A   Unknown
1:15 PM 51.3 °F - 32.7 °F 49% 30.33 in 10.0 mi NNE 3.5 mph - N/A   Unknown
1:35 PM 51.6 °F - 32.9 °F 49% 30.31 in 10.0 mi NE 4.6 mph - N/A   Unknown
1:55 PM 52.2 °F - 32.5 °F 47% 30.30 in 10.0 mi NE 4.6 mph - N/A   Unknown
2:15 PM 52.7 °F - 32.0 °F 45% 30.30 in 10.0 mi NE 3.5 mph - N/A   Unknown
2:35 PM 52.7 °F - 32.0 °F 45% 30.31 in 10.0 mi NE 5.8 mph - N/A   Unknown
2:55 PM 52.3 °F - 33.1 °F 48% 30.31 in 10.0 mi North 6.9 mph - N/A   Unknown
3:15 PM 52.0 °F - 33.4 °F 49% 30.32 in 10.0 mi North 6.9 mph - N/A   Unknown
3:35 PM 52.0 °F - 32.9 °F 48% 30.31 in 10.0 mi NNE 5.8 mph - N/A   Unknown
3:55 PM 51.8 °F - 33.8 °F 50% 30.30 in 10.0 mi NNE 6.9 mph - N/A   Unknown
4:15 PM 51.8 °F - 33.4 °F 50% 30.30 in 10.0 mi NE 9.2 mph - N/A   Unknown
4:35 PM 51.8 °F - 32.2 °F 47% 30.30 in 10.0 mi NE 6.9 mph - N/A   Unknown
4:55 PM 51.4 °F - 33.1 °F 50% 30.30 in 10.0 mi NE 5.8 mph - N/A   Unknown
5:15 PM 51.3 °F - 32.7 °F 49% 30.29 in 10.0 mi NE 5.8 mph - N/A   Unknown
5:35 PM 50.9 °F - 33.4 °F 51% 30.29 in 10.0 mi NE 6.9 mph - N/A   Unknown
5:55 PM 50.9 °F - 33.6 °F 52% 30.29 in 10.0 mi NE 5.8 mph - N/A   Unknown
6:15 PM 50.9 °F - 32.9 °F 50% 30.29 in 10.0 mi ENE 4.6 mph - N/A   Unknown
6:35 PM 50.9 °F - 32.4 °F 49% 30.29 in 10.0 mi East 5.8 mph - N/A   Unknown
6:55 PM 50.9 °F - 32.4 °F 49% 30.29 in 10.0 mi ESE 3.5 mph - N/A   Unknown
7:15 PM 50.9 °F - 32.0 °F 48% 30.29 in 10.0 mi ENE 3.5 mph - N/A   Unknown
7:55 PM 48.2 °F - 37.9 °F 68% 30.29 in 10.0 mi Calm Calm - N/A   Unknown
8:15 PM 47.8 °F - 37.8 °F 68% 30.29 in 10.0 mi ESE 3.5 mph - N/A Rain Light Rain
8:35 PM 46.4 °F - 39.4 °F 77% 30.29 in 7.0 mi Calm Calm - N/A   Drizzle
8:55 PM 46.0 °F 43.9 °F 40.6 °F 81% 30.29 in 10.0 mi NE 4.6 mph - N/A   Light Drizzle
9:15 PM 45.9 °F 44.6 °F 41.0 °F 83% 30.29 in 10.0 mi East 3.5 mph - N/A   Light Drizzle
9:35 PM 45.7 °F - 44.6 °F 96% 30.30 in 7.0 mi Calm Calm - 0.01 in   Drizzle
9:55 PM 45.5 °F - 45.5 °F 100% 30.29 in 7.0 mi Calm Calm - 0.01 in   Light Drizzle
10:15 PM 45.5 °F - 45.5 °F 100% 30.29 in 7.0 mi Calm Calm - N/A   Light Drizzle
10:35 PM 45.5 °F - 45.5 °F 100% 30.29 in 10.0 mi Calm Calm - N/A   Unknown
10:55 PM 45.1 °F 42.8 °F 45.1 °F 100% 30.28 in 10.0 mi East 4.6 mph - N/A   Unknown
11:15 PM 44.8 °F 41.6 °F 44.8 °F 100% 30.26 in 10.0 mi ENE 5.8 mph - N/A   Unknown
11:35 PM 44.8 °F 42.4 °F 44.8 °F 100% 30.26 in 10.0 mi East 4.6 mph - N/A   Unknown
11:55 PM 45.1 °F 43.7 °F 45.1 °F 100% 30.25 in 10.0 mi East 3.5 mph - N/A   Unknown